Tracking 30102 objects as of 12-Dec-2024
HD Live streaming from Space Station
objects crossing your sky now

STARLINK-6224

Track STARLINK-6224 now!
10-day predictions
STARLINK-6224 is classified as:


NORAD ID: 56425
Int'l Code: 2023-061BD
Perigee: 565.5 km
Apogee: 567.0 km
Inclination: 43.0 °
Period: 95.8 minutes
Semi major axis: 6937 km
RCS: Unknown
Launch date: May 4, 2023
Source: United States (US)
Launch site: AIR FORCE EASTERN TEST RANGE (AFETR)
Your satellite tracking list
Your tracking list is empty




NASA's NSSDC Master Catalog

Two Line Element Set (TLE):
1 56425U 23061BD  24346.84048595 -.00000392  00000-0 -13923-4 0  9994
2 56425  43.0035 112.1799 0001107 271.8805  88.1910 15.02533775 88932
Source of the keplerian elements: AFSPC